Portada
METAR-TAF:

METAR-TAF

Aeropuertos :

Gonabad, Irán

latitud: 34-22-51N, longitud: 58-38-23E, altitud: 1100 m

Observación

El informe se hizo hace 1 hora y 1 minutos, a las 02:00 UTC
Viento 8 kt del sur-sureste
Temperatura 26°C
Humedad 14%
Presión 1011 hPa
Visibilidad 10 km o más
sin nubes por debajo de 1500 m y sin presencia de cumulonimbus.

METAR: OIMD 010200Z 15008KT CAVOK 26/M04 Q1011

Hora: 07:31 (03:01 UTC)


TAF: falta

Observaciones y pronósticos meteorológicos de más de 4000 aeropuertos (mensajes METAR y TAF).

Los puntos amarillos y rojos representan las estaciones disponibles.

Ponga el ratón en el punto deseado para ver el nombre de la estación.

Haga clic para ver las observaciones y los pronósticos meteorológicos.

Para cambiar el mapa : haga clic en los botones verdes con una cruz de color negro para hacer un zoom, en el botón verde con un guión para alejar o en las flechas verdes para mapas adyacentes.


METAR-TAF: